Погода Янги-Юган

Погода Янги-Юган : погода сейчас, прогноз погоды и архив. Всё, что Вы хотите узнать о погоде Янги-Юган!

Хотите узнать прогноз погоды Янги-Юган? Тогда Вам сюда: Погода Янги-Юган

Поиск расширенной информации на нашем сайте:

Другие новости

Новости СМИ2

Главная страница сайта

Новости сайта

02.10.2013

Напоминаем, что на нашем новом сайте вы можете получить высокодетализированные прогнозы погоды по пунктам России, СНГ и мира (включающие важные для авиации метеовеличины, такие как направление и скорость ветра, видимость, явления погоды, количество и форма облачности, нижняя и верхняя граница облачности), а также ознакомиться с разнообразными материалами по авиационной метеорологии и подборкой полезных ссылок на эту тему.

Сайт Метеоцентр.Азия посвящён разработке технологий оптимизации авиаметеорологического обслуживания, включая проектирование и перспективное создание нескольких автоматизированных авиаметеорологических систем:
- система выпуска высокодетальных прогностических карт явлений погоды для нижнего воздушного пространства по России и ближнему зарубежью;
- система верификации прогнозов TAF (выпускаемых синоптиками официальных АМСГ РФ и ближнего зарубежья) и AUTOTAF (выпускаемых сайтом Метеоцентр.Азия) - выявление ошибок, онлайн-сопоставление с фактической погодой METAR, автоматическое внесение коррективов в прогнозы при резком отклонении фактической погоды от прогноза, подсчёт оправдываемости прогнозов по элементам и в целом;
- система обработки, анализа и отображения авиаметеорологической информации для применения провайдерами метеорологической информации.


Погода Янги-Юган - сегодня

Время (UTC), дата Ветер
(°,м/с) 
Видим.   Явления Облачность Т
(°С)
Тd
(°С)
f(%) Тe
(°С)
Pmin
(гПа)
dP
(гПа)
Po
(мм)
O2
(г/м3)
Тmin Tmax R s Состояние
почвы
18 24.02.17 090 (В) н/о    н/о 
-26.3 -29.5 74 -31  1025.5  0.7  765  343           
21 24.02.17 100 (В) н/о    н/о 
-26.4 -29.6 74 -30  1025.9  0.4  766  343           
00 25.02.17 100 (В) н/о    н/о 
-26.2 -29.4 74 -27  1026  -0.1  766  343           
03 25.02.17 120 (ЮВ) 20000 м    8/0 верхняя 
[Ci sp]
-23.5 -26.8 74 -28  1025.8  -0.3  766  339  -27.8      46  равномерный
сухой снег
100% 
06 25.02.17 140 (ЮВ) н/о    н/о 
-18.5 -21.9 75 -24  1025  -0.5  765  332           
09 25.02.17 130 (ЮВ) 20000 м    9/0 верхняя 
[Ci sp]
-16.4 -21.5 65 -21  1024.3  -0.7  765  329           
12 25.02.17 130 (ЮВ) 20000 м    8/0 верхняя 
[Ci sp]
-16.4 -21.5 65 -20  1024.3  -1.1  764  329           
15 25.02.17 130 (ЮВ) 20000 м  позёмок  10/0 верхняя 
[Cs]
-16.4 -21.5 65 -21  1021.9  -1.4  763  329    -15.3       
18 25.02.17 120 (ЮВ) 5{10}  н/о    н/о 
-16.9 -20.3 75 -23  1020.4  -1.4  762  329           
21 25.02.17 130 (ЮВ) 4{11}  н/о    н/о 
-16.4 -20.9 68 -21  1018.1  -1.4  760  327           
00 26.02.17 120 (ЮВ) 4{11}  н/о    н/о 
-16.6 -21.5 66 -22  1015.5  -2.5  758  327           
03 26.02.17 130 (ЮВ) 5-10{10}  20000 м  позёмок  10/0 средняя 
[Ac As]
-14.4 -18.7 70 -20  1013.9  -1.7  757  323  -17.5      45  равномерный
сухой снег
100% 
06 26.02.17 130 (ЮВ) 5-12{12}  20000 м  позёмок  8/0 средняя 
[As op]
-11.6 -17.1 64 -17  1012.1  -1.6  756  319           
09 26.02.17 120 (ЮВ) 6-12{14}  20000 м  слаб. снег  10/0 средняя 
[As op]
-9.4 -14.5 66 -15  1009.5  -2.5  754  316           
12 26.02.17 130 (ЮВ) 5-12  н/о    н/о 
-10.1 -12.8 81 -15  1007.1  752  316           
15 26.02.17 120 (ЮВ) 5-11{12}  4000 м  слаб. снег  10/5 300 м средняя 
[Frnb|As op]
-10.8 -13.6 80 -16  993.3  -3.6  749  316    -9.4     
03 27.02.17 160 (Ю) 6-12{14}  10 км  метель{снег}  10/8 300 м средняя 
[Frnb|As trans]
-5.6 -9 77 -10  993.4  742  306  -10.8      47  равномерный
сухой снег
100% 
06 27.02.17 210 (ЮЗ) 5-10  20000 м  метель  10/3 300 м верхняя 
[St|Cs]
-6.1 -10.3 72 -10  995.8  744  307           
09 27.02.17 190 (Ю) 4{11}  20000 м  позёмок  10/0 
[]
-5.9 -10.7 69 -9  996.7  744  308           
12 27.02.17 180 (Ю) 20000 м    6/0 верхняя 
[Ci sp]
-7 -12.1 67 -10  996.8  0.1  744  309           
15 27.02.17 230 (ЮЗ) 20000 м    ясно 
-10.8 -14.4 75 -13  996.6  -0.3  744  313    -5.4       
18 27.02.17 230 (ЮЗ) н/о    н/о 
-12.7 -16.1 76 -15  995.1  -1.5  743  315           
21 27.02.17 240 (ЮЗ) н/о    н/о 
-15.3 -17.8 81 -18  995.1  743  319           
00 28.02.17 200 (Ю) н/о    н/о 
-17 -19 84 -19  995.4  0.2  743  321           
03 28.02.17 160 (Ю) 20000 м    4/0 верхняя 
[Ci sp]
-18.2 -20.4 83 -21  996.9  1.2  744  323  -18.3      47  равномерный
сухой снег
100% 
Время (UTC), дата Ветер
(°,м/с) 
Видим.   Явления Облачность Т
(°С)
Тd
(°С)
f(%) Тe
(°С)
Pmin
(гПа)
dP
(гПа)
Po
(мм)
O2
(г/м3)
Тmin Tmax R s Состояние
почвы

Для получения пояснительной информации подведите курсор к названию столбца.

ПОГОДА Янги-Юган - архив

Всё, что Вы хотите узнать о погоде Янги-Юган - удобно и подробно!

Выберите нужную дату (начиная с 1 января 2015* года) и нажмите кнопку "Найти".
Будут отображены архивные сводки погоды по пункту Янги-Юган, начиная с указанной даты.


Отображать данные в формате CSV (для использования в таблицах Excel)


Внимание! Наш архив погоды предназначен исключительно для личного некоммерческого использования в познавательных целях. Если Вам необходимы официальные справки о состоянии погоды (для производственных, юридических, коммерческих и т.п. целей), обращайтесь в органы Росгидромета.

*Примечание: данная дата относится к архиву по метеостанциям СССР (Россия, СНГ, Балтия).
Архив по метеостанциям Зарубежной Европы и Азии (кроме Китая) хранится 10 дней, по другим регионам земного шара (Китай, Африка, Америка, Австралия, Океания) - 1 день.

Янги-Юган - район местоположения метеостанции


Название, широта, долгота, высота метеостанции:
Янги-Юган 66.1°ш. 68.7°д. 40 м над ур. моря [Российская Федерация]

Дополнительная информация

В oтличие oт бoльшинства пoгoдных сайтoв мы публикуем пoдрoбную метеoинфoрмацию в детальнoм прoфессиoнальнoм фoрмате.

Характеристики температуры и влажнoсти вoздуха измеряются на высoте 2 м в тени вдали oт зданий и деревьев.
Скoрoсть ветра измеряется на высoте 10 м (на урoвне рoста челoвека скoрoсть ветра ниже в 1.5-2 раза). Если метеoстанция нахoдится в гoрoде или в лесу, тo скoрoсть ветра занижена на 2-4 м/с пo сравнению с oткрытым местoм. Скoрoсть ветра над акватoриями крупных рек и oзёр, а также на вершинах хoлмoв на 2-5 м/с выше, чем в oбычных услoвиях.
Атмoсфернoе давление в разных тoчках местнoсти мoжет значительнo oтличаться oт давления на метеoстанции, в зависимoсти oт услoвий рельефа (при пoдъёме на 10 м давление пoнижается примернo на 1 мм рт.ст.).